{"data":{"norad_id":59943,"epoch":"2026-05-25T00:23:42.046368Z","epoch_age_seconds":63790,"freshness":"FRESH","line1":"1 59943U 24106X   26145.01645887 -.00000052  00000+0  76478-5 0  9994","line2":"2 59943  43.0003 261.6740 0001078 279.8521  80.2209 15.27579309112191","mean_motion":15.27579309,"eccentricity":0.0001078,"inclination_deg":43.0003,"raan_deg":261.674,"arg_perigee_deg":279.8521,"mean_anomaly_deg":80.2209,"bstar":7.6478e-6,"rev_number":11219,"period_min":94.266791355185,"perigee_km":482.31152905882,"apogee_km":483.79080122722,"semimajor_km":6861.188165143,"source":"CELESTRAK","updated_at":"2026-05-25T13:38:19.126231Z"}}